Location: Bonny Doon Airfield
(37.0704°N, 122.1252°W)
Time: 17:30:17
(UTC-07:00)

OTV 5 (USA 277) - Pass Details

Date: 09 October 2017
Orbit: 404 x 417 km, 43.0° (Epoch: 07 September)

Event Time Altitude Azimuth Distance (km) Brightness Sun altitude
Rises 19:01:51 0° 216° (SW) 2,339 ? -5.3°
Reaches altitude 10° 19:04:09 10° 204° (SSW) 1,480 ? -5.7°
Maximum altitude 19:07:01 26° 145° (SE) 850 ? -6.3°
Drops below altitude 10° 19:09:53 10° 86° (E) 1,486 ? -6.9°
Enters shadow 19:10:06 - 84° (E) 1,564 ? -6.9°
